Weather History for KSEZ - October, 2013

Change the Weather History Date:

Wednesday, October 16, 2013

  Actual Average Record
Temperature  
Mean Temperature 58 °F -  
Max Temperature 69 °F 76 °F 86 °F (2011)
Min Temperature 46 °F 45 °F 46 °F (2013)
Degree Days  
Heating Degree Days 8    
Growing Degree Days 8 (Base 50)    
Moisture  
Dew Point 26 °F    
Average Humidity 32    
Maximum Humidity 46    
Minimum Humidity 18    
Precipitation  
Precipitation 0.00 in - - ()
Sea Level Pressure  
Sea Level Pressure 30.14 in    
Wind  
Wind Speed 11 mph (ENE)    
Max Wind Speed 17 mph    
Max Gust Speed 25 mph    
Visibility 10 miles    
Events      
Averages and records for this station are not official NWS values.
T = Trace of Precipitation, MM = Missing Value Source: NWS Daily Summary

Daily Weather History Graph

Daily Weather History Graph

Search for Another Location

Airport or City:

Trip Planner

Search our weather history database for the weather conditions in past years. The results will help you decide how hot, cold, wet, or windy it might be!

Date:

Astronomy

Oct. 16, 2013 Rise Set
Actual Time 6:34 AM MST 5:50 PM MST
Civil Twilight 6:08 AM MST 6:16 PM MST
Nautical Twilight 5:39 AM MST 6:45 PM MST
Astronomical Twilight 5:09 AM MST 7:14 PM MST
Moon 4:28 PM MST (10/16) 4:10 AM MST (10/16)
Length of Visible Light 12h 07m
Length of Day
11h 16m
Waxing Gibbous, 94% of the Moon is Illuminated
Oct 16
Waxing Gibbous
Oct 18
Full
Oct 26
Last Quarter
Nov 3
New
Nov 9
First Quarter

Hourly Weather History & Observations

Time (MST) Temp. Windchill Dew Point Humidity Pressure Visibility Wind Dir Wind Speed Gust Speed Precip Events Conditions
12:15 AM 51.8 °F - 28.4 °F 41% 30.08 in 10.0 mi NE 12.7 mph 19.6 mph N/A   Clear
12:35 AM 51.8 °F - 28.4 °F 41% 30.08 in 10.0 mi ENE 17.3 mph 23.0 mph N/A   Clear
12:55 AM 51.8 °F - 28.4 °F 41% 30.09 in 10.0 mi ENE 15.0 mph 23.0 mph N/A   Clear
1:15 AM 51.8 °F - 28.4 °F 41% 30.09 in 10.0 mi ENE 15.0 mph 23.0 mph N/A   Clear
1:35 AM 51.8 °F - 28.4 °F 41% 30.09 in 10.0 mi ENE 13.8 mph 24.2 mph N/A   Clear
1:55 AM 50.0 °F - 28.4 °F 43% 30.10 in 10.0 mi NE 13.8 mph 21.9 mph N/A   Clear
2:15 AM 50.0 °F - 28.4 °F 43% 30.09 in 10.0 mi ENE 13.8 mph 19.6 mph N/A   Clear
2:35 AM 50.0 °F - 28.4 °F 43% 30.10 in 10.0 mi ENE 11.5 mph 23.0 mph N/A   Clear
2:55 AM 50.0 °F - 28.4 °F 43% 30.10 in 10.0 mi ENE 11.5 mph 23.0 mph N/A   Clear
3:15 AM 50.0 °F - 28.4 °F 43% 30.10 in 10.0 mi ENE 10.4 mph 20.7 mph N/A   Clear
3:35 AM 50.0 °F - 28.4 °F 43% 30.10 in 10.0 mi East 12.7 mph 19.6 mph N/A   Clear
3:55 AM 48.2 °F - 28.4 °F 46% 30.11 in 10.0 mi ENE 9.2 mph 18.4 mph N/A   Clear
4:15 AM 48.2 °F - 26.6 °F 43% 30.11 in 10.0 mi ENE 15.0 mph 20.7 mph N/A   Clear
4:35 AM 48.2 °F - 26.6 °F 43% 30.11 in 10.0 mi ENE 12.7 mph 20.7 mph N/A   Clear
4:55 AM 48.2 °F - 26.6 °F 43% 30.12 in 10.0 mi ENE 12.7 mph 25.3 mph N/A   Clear
5:15 AM 46.4 °F 40.4 °F 26.6 °F 46% 30.12 in 10.0 mi ENE 13.8 mph 23.0 mph N/A   Clear
5:35 AM 46.4 °F 41.1 °F 26.6 °F 46% 30.13 in 10.0 mi ENE 11.5 mph 18.4 mph N/A   Clear
5:55 AM 46.4 °F 41.1 °F 26.6 °F 46% 30.14 in 10.0 mi ENE 11.5 mph 19.6 mph N/A   Clear
6:15 AM 46.4 °F 41.1 °F 26.6 °F 46% 30.14 in 10.0 mi ENE 11.5 mph 18.4 mph N/A   Clear
6:35 AM 46.4 °F 41.5 °F 26.6 °F 46% 30.15 in 10.0 mi ENE 10.4 mph 17.3 mph N/A   Clear
6:55 AM 46.4 °F 41.5 °F 26.6 °F 46% 30.16 in 10.0 mi ENE 10.4 mph - N/A   Clear
7:15 AM 48.2 °F - 26.6 °F 43% 30.16 in 10.0 mi NE 11.5 mph 17.3 mph N/A   Clear
7:35 AM 50.0 °F - 26.6 °F 40% 30.17 in 10.0 mi ENE 6.9 mph - N/A   Clear
7:55 AM 50.0 °F - 26.6 °F 40% 30.18 in 10.0 mi NE 12.7 mph 18.4 mph N/A   Clear
8:15 AM 51.8 °F - 26.6 °F 38% 30.19 in 10.0 mi East 11.5 mph 18.4 mph N/A   Clear
8:35 AM 53.6 °F - 26.6 °F 35% 30.20 in 10.0 mi ENE 10.4 mph - N/A   Clear
8:55 AM 55.4 °F - 26.6 °F 33% 30.20 in 10.0 mi East 10.4 mph 16.1 mph N/A   Clear
9:15 AM 57.2 °F - 26.6 °F 31% 30.21 in 10.0 mi East 13.8 mph 18.4 mph N/A   Clear
9:35 AM 59.0 °F - 26.6 °F 29% 30.21 in 10.0 mi East 9.2 mph 17.3 mph N/A   Clear
9:55 AM 60.8 °F - 26.6 °F 27% 30.21 in 10.0 mi East 11.5 mph 17.3 mph N/A   Clear
10:15 AM 60.8 °F - 26.6 °F 27% 30.20 in 10.0 mi NE 4.6 mph - N/A   Clear
10:35 AM 60.8 °F - 24.8 °F 25% 30.19 in 10.0 mi North 4.6 mph - N/A   Clear
10:55 AM 60.8 °F - 24.8 °F 25% 30.19 in 10.0 mi NNW 3.5 mph - N/A   Clear
11:15 AM 60.8 °F - 24.8 °F 25% 30.19 in 10.0 mi NE 4.6 mph - N/A   Clear
11:35 AM 60.8 °F - 26.6 °F 27% 30.18 in 10.0 mi NNE 3.5 mph - N/A   Clear
11:55 AM 64.4 °F - 26.6 °F 24% 30.17 in 10.0 mi SE 10.4 mph - N/A   Clear
12:15 PM 68.0 °F - 26.6 °F 21% 30.17 in 10.0 mi SE 6.9 mph - N/A   Clear
12:35 PM 66.2 °F - 26.6 °F 23% 30.16 in 10.0 mi WNW 10.4 mph - N/A   Clear
12:55 PM 64.4 °F - 24.8 °F 22% 30.16 in 10.0 mi WSW 5.8 mph - N/A   Clear
1:15 PM 64.4 °F - 24.8 °F 22% 30.15 in 10.0 mi West 5.8 mph - N/A   Clear
1:35 PM 64.4 °F - 24.8 °F 22% 30.14 in 10.0 mi SE 8.1 mph - N/A   Clear
1:55 PM 68.0 °F - 24.8 °F 20% 30.14 in 10.0 mi South 3.5 mph - N/A   Clear
2:15 PM 68.0 °F - 23.0 °F 18% 30.14 in 10.0 mi ESE 5.8 mph - N/A   Clear
2:35 PM 69.8 °F - 24.8 °F 18% 30.13 in 10.0 mi SSE 8.1 mph - N/A   Clear
2:55 PM 68.0 °F - 23.0 °F 18% 30.13 in 10.0 mi SE 3.5 mph - N/A   Clear
3:15 PM 68.0 °F - 23.0 °F 18% 30.13 in 10.0 mi WSW 5.8 mph - N/A   Clear
3:35 PM 66.2 °F - 23.0 °F 19% 30.13 in 10.0 mi Calm Calm - N/A   Clear
3:55 PM 68.0 °F - 23.0 °F 18% 30.12 in 10.0 mi South 5.8 mph - N/A   Clear
4:15 PM 66.2 °F - 24.8 °F 21% 30.12 in 10.0 mi Calm Calm - N/A   Clear
4:35 PM 66.2 °F - 23.0 °F 19% 30.12 in 10.0 mi West 3.5 mph - N/A   Clear
4:55 PM 64.4 °F - 23.0 °F 21% 30.12 in 10.0 mi Calm Calm - N/A   Clear
5:15 PM 64.4 °F - 23.0 °F 21% 30.12 in 10.0 mi Calm Calm - N/A   Clear
5:35 PM 62.6 °F - 23.0 °F 22% 30.12 in 10.0 mi West 4.6 mph - N/A   Clear
5:55 PM 60.8 °F - 23.0 °F 23% 30.13 in 10.0 mi WNW 3.5 mph - N/A   Clear
6:15 PM 60.8 °F - 24.8 °F 25% 30.12 in 10.0 mi WNW 5.8 mph - N/A   Clear
6:35 PM 60.8 °F - 24.8 °F 25% 30.13 in 10.0 mi WNW 5.8 mph - N/A   Clear
6:55 PM 60.8 °F - 24.8 °F 25% 30.13 in 10.0 mi WNW 4.6 mph - N/A   Clear
7:15 PM 59.0 °F - 26.6 °F 29% 30.14 in 10.0 mi NE 4.6 mph - N/A   Clear
7:35 PM 57.2 °F - 26.6 °F 31% 30.14 in 10.0 mi NE 8.1 mph - N/A   Clear
7:55 PM 55.4 °F - 26.6 °F 33% 30.14 in 10.0 mi NE 10.4 mph - N/A   Clear
8:15 PM 55.4 °F - 26.6 °F 33% 30.14 in 10.0 mi NE 11.5 mph - N/A   Clear
8:35 PM 55.4 °F - 26.6 °F 33% 30.15 in 10.0 mi NE 12.7 mph - N/A   Clear
8:55 PM 53.6 °F - 26.6 °F 35% 30.15 in 10.0 mi NE 12.7 mph - N/A   Clear
9:15 PM 53.6 °F - 26.6 °F 35% 30.15 in 10.0 mi ENE 12.7 mph - N/A   Clear
9:35 PM 53.6 °F - 26.6 °F 35% 30.15 in 10.0 mi NE 11.5 mph 17.3 mph N/A   Clear
9:55 PM 53.6 °F - 24.8 °F 33% 30.15 in 10.0 mi NE 12.7 mph - N/A   Clear
10:15 PM 53.6 °F - 24.8 °F 33% 30.15 in 10.0 mi NE 12.7 mph - N/A   Clear
10:35 PM 53.6 °F - 24.8 °F 33% 30.15 in 10.0 mi NE 12.7 mph - N/A   Clear
10:55 PM 51.8 °F - 24.8 °F 35% 30.15 in 10.0 mi ENE 11.5 mph - N/A   Clear
11:15 PM 51.8 °F - 24.8 °F 35% 30.15 in 10.0 mi NE 10.4 mph - N/A   Clear
11:35 PM 51.8 °F - 24.8 °F 35% 30.15 in 10.0 mi NE 9.2 mph - N/A   Clear
11:55 PM 50.0 °F - 24.8 °F 37% 30.15 in 10.0 mi NE 13.8 mph 17.3 mph N/A   Clear